Skip Page Navigation
NASA JPL Caltech
NASA Logo - Jet Propulsion Laboratory + View the NASA Portal
+ Center for Near-Earth Object Studies
JPL Home Earth Solar System Stars & Galaxies Technology
JPL Solar System Dynamics
BODIES ORBITS EPHEMERIDES TOOLS PHYSICAL DATA DISCOVERY FAQ SITE MAP
IMPORTANT: The SSD Announcement email list is now available. Major changes are coming in the near future, including possible hostname and/or URL changes. To be notified of such changes, subscribe to this email list.

Please visit this page for more details.


JPL Small-Body Database Browser
Search: [ help ]  
300223 (2006 XK32)
Classification: Main-belt Asteroid          SPK-ID: 2300223
Ephemeris | Orbit Diagram | Orbital Elements | Mission Design | Physical Parameters | Discovery Circumstances | Close-Approach Data ]

[ show orbit diagram ]
Orbital Elements at Epoch 2458600.5 (2019-Apr-27.0) TDB
Reference: JPL 9 (heliocentric ecliptic J2000)
 Element Value Uncertainty (1-sigma)   Units 
e .07924259094946666 6.2168e-08  
a 3.187014425274151 4.4607e-08 au
q 2.934467144822102 2.043e-07 au
i 2.239178860691855 7.108e-06 deg
node 40.26245299195001 0.00016592 deg
peri 22.99550370701746 0.00017476 deg
M 81.8948428555576 5.0604e-05 deg
tp 2458127.753280543426
(2018-Jan-09.25328054)
0.00029206 TDB
period 2078.138415926114
5.69
4.363e-05
1.195e-07
d
yr
n .1732319643586241 3.637e-09 deg/d
Q 3.4395617057262 4.8142e-08 au
  Orbit Determination Parameters
   # obs. used (total)      155  
   data-arc span      6223 days (17.04 yr)  
   first obs. used      2002-02-12  
   last obs. used      2019-02-26  
   planetary ephem.      DE431  
   SB-pert. ephem.      SB431-N16  
   condition code      0  
   norm. resid. RMS      .56858  
   source      ORB  
   producer      Otto Matic  
   solution date      2019-Jul-14 08:43:13  

Additional Information
 Earth MOID = 1.9474 au 
 Jupiter MOID = 1.81398 au 
 T_jup = 3.192 
[ show covariance matrix ]

Ephemeris | Orbit Diagram | Orbital Elements | Mission Design | Physical Parameters | Discovery Circumstances | Close-Approach Data ]

Physical Parameter Table
Parameter Symbol Value Units Sigma Reference Notes
absolute magnitude H 16.1   n/a MPO433935  

300223 (2006 XK32)          Discovered 2006-Dec-09 by Spacewatch at Kitt Peak
Reference: 20111012/Numbers.arcLast Updated: 2011-10-13

[ show close-approach data ]
Alternate Designations
 2006 XK32 = 2002 CR314 
Ephemeris | Orbit Diagram | Orbital Elements | Mission Design | Physical Parameters | Discovery Circumstances | Close-Approach Data ]
ABOUT SSD CREDITS/AWARDS PRIVACY/COPYRIGHT GLOSSARY LINKS
FirstGov
(server date/time)  
NASA Home Page
Site Manager:   Ryan S. Park
Webmaster  Alan B. Chamberlin